Regional Weather Roundup
Issued by NWS

Home | Current Version | Previous Version | Graphics & Text | Print | Product List | Glossary On
Versions: 1 2 3 4 5 6 7 8 9 10 11 12 13 14 15 16 17 18 19 20 21 22 23 24 25 26 27 28 29 30 31 32 33 34 35 36 37 38 39 40 41 42 43 44 45 46 47 48 49 50
000
ASUS43 KDMX 051107
RWRIA

WEATHER ROUNDUP FOR IOWA
NATIONAL WEATHER SERVICE DES MOINES IA
600 AM CDT SUN JUL 05 2015

NOTE: "FAIR" INDICATES FEW OR NO CLOUDS BELOW 12,000 FEET WITH NO
SIGNIFICANT WEATHER AND/OR OBSTRUCTIONS TO VISIBILITY.

* - THESE STATIONS ARE NOT NWS STATIONS...THUS NOT UNDER NWS
QUALITY CONTROL.  THEY ALSO DO NOT REPORT WEATHER SUCH
AS PRECIPITATION OR FOG.

IAZ001>003-012>014-020>022-031>034-043>046-051200-
   NORTHWEST IOWA

CITY           SKY/WX    TMP DP  RH WIND       PRES   REMARKS
CARROLL *      CLEAR     61  61 100 CALM      29.95R
CHEROKEE *     MOCLDY    64  63  94 S6        29.92R
DENISON *      CLEAR     66  63  88 S7G16     29.91F
LE MARS *        N/A     68  63  83 SE8G14    29.90R
ORANGE CITY *  CLEAR     64  61  88 S6        29.91R
SHELDON *      CLEAR     66  66 100 S10G16    29.90R
SIOUX CITY     MOCLDY    68  61  78 SE10      29.87F
SPENCER        CLOUDY    65  59  81 S8        29.93R
STORM LAKE *   CLEAR     63  61  94 S10       29.94F
$$

IAZ055>058-069>071-079>083-090>094-051200-
   SOUTHWEST IOWA

CITY           SKY/WX    TMP DP  RH WIND       PRES   REMARKS
ATLANTIC *     CLEAR     64  63  94 S6        29.96R
AUDUBON *      CLEAR     64  61  88 S5        29.97R
CLARINDA *     CLEAR     64  64 100 S5        29.97S
COUNCIL BLFS * CLEAR     66  63  88 SE12      29.92F
CRESTON *      CLEAR     64  63  94 S9        29.98R
HARLAN  *      CLEAR     64  64 100 S8        29.97S
LAMONI         CLEAR     65  62  90 S8        29.99S
RED OAK *      CLEAR     66  63  88 S5        29.95S
SHENANDOAH *   CLEAR     66  64  94 SE6       29.95S FOG
$$

IAZ047>049-059>061-072>074-084-051200-
   CENTRAL IOWA

CITY           SKY/WX    TMP DP  RH WIND       PRES   REMARKS
AMES           CLEAR     58  56  93 SE5       29.97R FOG
ANKENY *       CLEAR     63  61  94 S5        29.98R
CHARITON *     PTCLDY    63  61  94 S7        30.00R
DES MOINES     PTCLDY    65  60  84 S8        29.98R
GRINNELL*      CLEAR     63  59  88 SE6       30.01R FOG
KNOXVILLE *    PTCLDY    63  61  94 S6        29.99R
MARSHALLTOWN   CLEAR     62  60  93 S7        29.99R
PELLA *        CLEAR     63  63 100 SE6       30.01R FOG
PERRY *          N/A     61  59  94 S3        29.97R FOG
$$

IAZ004>006-015-016-023>025-035-036-051200-
   NORTH CENTRAL IOWA

CITY           SKY/WX    TMP DP  RH WIND       PRES   REMARKS
ALGONA *       CLEAR     63  59  88 S8        29.95R
CLARION *      CLEAR     63  59  88 S8        29.97R
ESTHERVILLE    MOCLDY    60  59  96 S7        29.94R
FORT DODGE *   CLEAR     64  57  77 S6        29.97R
MASON CITY     CLEAR     58  57  97 S6        29.99R
FOREST CITY *  CLEAR     57  57 100 SE6       29.97S
IOWA FALLS *     N/A     59  57  94 SE5       30.00R
$$

IAZ007>011-017>019-026>030-037>042-050>054-066-051200-
   NORTHEAST IOWA

CITY           SKY/WX    TMP DP  RH WIND       PRES   REMARKS
CEDAR RAPIDS   CLEAR     62  62 100 S6        30.02S FOG
CHARLES CITY * CLEAR     61  61 100 S5        30.01R
CLINTON *      CLEAR     61  55  82 SE3       30.08R
DECORAH *        N/A    N/A N/A N/A MISG        N/A
DUBUQUE        CLEAR     60  57  89 S5        30.05S FOG
MONTICELLO *   CLEAR     59  59 100 CALM      30.03S FOG
OELWEIN *        N/A     59  59 100 SE7       30.02S FOG
WATERLOO       CLEAR     64  60  87 S8        29.98S
$$

IAZ064-065-067-068-078-051200-
   EAST CENTRAL IOWA

CITY           SKY/WX    TMP DP  RH WIND       PRES   REMARKS
DAVENPORT      CLEAR     61  58  90 S6        30.05S FOG
IOWA CITY      CLEAR     62  60  93 CALM      30.04S FOG
MT. PLEASANT * CLEAR     64  61  88 S3        30.03S FOG
MUSCATINE *    FOG       59  57  94 CALM      30.04S VSB 0
QUAD CITIES    CLEAR     61  57  87 E3        30.05R FOG
$$

IAZ062-063-075>077-085>089-095>099-051200-
   SOUTHEAST IOWA

CITY           SKY/WX    TMP DP  RH WIND       PRES   REMARKS
BURLINGTON     CLEAR     63  62  97 CALM      30.04R FOG
FAIRFIELD *    CLEAR     64  61  88 S5        30.03S FOG
FORT MADISON * CLEAR     64  63  94 S5        30.04S
KEOKUK *       CLEAR     64  63  94 CALM      30.03R FOG
OSKALOOSA *      N/A     61  59  94 SE5       30.02S FOG
CENTERVILLE *  CLEAR     63  63 100 SE7       30.02S
OTTUMWA        CLEAR     64  63  96 S7        30.00S FOG
WASHINGTON *   CLEAR     61  61 100 S5        30.04S FOG
$$

ABBREVIATIONS USED IN REMARKS
   TC - TEMPERATURES IN CELSIUS
  WCI - WIND CHILL INDEX
   HX - HEAT INDEX
  VSB - VISIBILITY
$$




USA.gov is the U.S. government's official web portal to all federal, state and local government web resources and services.